This is the latest recevied weather packets stored in our database for station/object K5KVN. If no packets are shown the sender has not sent any weather packets the latest 10 day(s).
| Time | Temp. | Humidity | Pressure | Rain* | Wind** | Luminosity | Snow |
|---|---|---|---|---|---|---|---|
| 1788166948 | 26.67° C | 63% | 1017.2 hPa | 0 mm | - | - | - |
| 1788166349 | 26.67° C | 62% | 1017.2 hPa | 0 mm | - | - | - |
| 1788165745 | 26.67° C | 62% | 1017.1 hPa | 0 mm | - | - | - |
| 1788165147 | 26.67° C | 62% | 1017 hPa | 0 mm | - | - | - |
| 1788164559 | 26.67° C | 61% | 1017 hPa | 0 mm | - | - | - |
| 1788163942 | 26.67° C | 61% | 1017 hPa | 0 mm | - | - | - |
| 1788163402 | 26.67° C | 61% | 1016.9 hPa | 0 mm | - | - | - |
| 1788162742 | 26.67° C | 60% | 1016.8 hPa | 0 mm | - | - | - |
| 1788162142 | 26.11° C | 60% | 1016.8 hPa | 0 mm | - | - | - |
| 1788161542 | 26.11° C | 61% | 1016.9 hPa | 0 mm | - | - | - |
| 1788160941 | 25° C | 63% | 1017.1 hPa | 0 mm | - | - | - |
| 1788160343 | 24.44° C | 65% | 1017.2 hPa | 0 mm | - | - | - |
| 1788159742 | 25° C | 63% | 1017.2 hPa | 0 mm | - | - | - |
| 1788159201 | 25° C | 62% | 1017.1 hPa | 0 mm | - | - | - |
| 1788158600 | 25.56° C | 60% | 1017.2 hPa | 0 mm | - | - | - |
| 1788157940 | 26.11° C | 59% | 1017.2 hPa | 0 mm | - | - | - |
| 1788157399 | 26.11° C | 58% | 1017.2 hPa | 0 mm | - | - | - |
| 1788156737 | 26.67° C | 57% | 1017.3 hPa | 0 mm | - | - | - |
| 1788156135 | 26.67° C | 56% | 1017.3 hPa | 0 mm | - | - | - |
| 1788155541 | 26.67° C | 56% | 1017.3 hPa | 0 mm | - | - | - |
| 1788154935 | 27.22° C | 56% | 1017.2 hPa | 0 mm | - | - | - |
| 1788154336 | 27.78° C | 54% | 1017.1 hPa | 0 mm | - | - | - |
| 1788153797 | 27.78° C | 54% | 1017.1 hPa | 0 mm | - | - | - |
| 1788153196 | 27.78° C | 54% | 1017 hPa | 0 mm | - | - | - |
| 1788152536 | 27.78° C | 54% | 1016.9 hPa | 0 mm | - | - | - |
* Rain latest hour (hover to see other rain measurements)
** Current wind speed in m/s (hover to see current wind gust speed)